Location: Peebles
(55.6412°N, 3.1714°W)
Time: 12:18:27
(UTC+01:00)

NOAA 16 DEB - Pass Details

Date: 03 July 2022
Orbit: 830 x 847 km, 98.8° (Epoch: 13 August)

Event Time Altitude Azimuth Distance (km) Brightness Sun altitude
Exits shadow 23:42:53 - 196° (SSW) 2,975 ? -8.9°
Reaches altitude 10° 23:44:24 10° 203° (SSW) 2,437 ? -9.0°
Maximum altitude 23:49:13 33° 266° (W) 1,386 ? -9.3°
Drops below altitude 10° 23:54:06 10° 329° (NNW) 2,458 ? -9.5°
Sets 23:56:43 0° 340° (NNW) 3,400 ? -9.6°
